sat.trackr.live / text

‹ back to catalog

STARLINK-4491

NORAD 53408 · 2022-097W

PAYLOAD ACTIVE UNKNOWN

§ Identity

Operator
Country
US
Launch date
2022-08-10
Launch site
AFETR
Launch vehicle
Mass (kg)
RCS (m²)

Purposes: comms

External: N2YO · Heavens-Above · Gunter

§ Orbital elements

Epoch: 2026-05-25T05:17:38.507712Z

Period
95.44 min
Inclination
53.2142°
Eccentricity
0.0001148
Mean motion
15.08843391 rev/d
Perigee alt
538.9 km
Apogee alt
540.5 km
Semi-major
6,917.9 km
B*
5.1428e-5
RAAN
130.5649°
Arg perigee
71.6180°
Mean anomaly
288.4937°
Rev number
21,020

§ Raw data

STARLINK-44911 53408U 22097W   26145.22058458  .00000531  00000+0  51428-4 0  99942 53408  53.2142 130.5649 0001148  71.6180 288.4937 15.08843391210202

JSON: /api/v1/satellites/53408 · /tle

For live sub-satellite position, see the globe view (requires WebGL).

§ Visibility from observer

Set your observer location to see the next 7 days of passes ≥ 10°. The values pass through the URL so the page stays shareable.

No JS? Fill the form by hand. The geolocation button needs JavaScript.